Regional Weather Roundup
Issued by NWS

Home | Current Version | Previous Version | Text Only | Print | Product List | Glossary On
Versions: 1 2 3 4 5 6 7 8 9 10 11 12 13 14 15 16 17 18 19 20 21 22 23 24 25 26 27 28 29 30 31 32 33 34 35 36 37 38 39 40 41 42 43 44 45 46 47 48 49 50
000
ASCA42 TJSJ 021310
RWRPR
PUERTO RICO/U.S. VIRGIN ISLANDS HOURLY WEATHER ROUNDUP
NATIONAL WEATHER SERVICE SAN JUAN PR
900 AM AST TUE JUN 02 2015

PRZ001-004-021400-
PUERTO RICO

CITY           SKY/WX    TMP DP  RH WIND       PRES   REMARKS
SAN JUAN LMM   MOSUNNY   84  75  74 E12       30.02R HX  92
AGUADILLA      SUNNY     82  72  69 E10       30.02S
CEIBA          PTSUNNY   84  75  74 E9        30.04R HX  92
$$

PRZ006-007-021400-
U.S. VIRGIN ISLANDS

CITY           SKY/WX    TMP DP  RH WIND       PRES   REMARKS
CHARLOTTE AMA  MOSUNNY   84  73  70 SE12      30.02R HX  91
CHRISTIANSTED  MOSUNNY   84  73  70 SE12      30.03R HX  91
$$

HOURLY WEATHER ROUNDUP FOR THE NEWS MEDIA

CITY           SKY/WX    TMP DP  RH WIND       PRES   REMARKS
ORLANDO        CLOUDY    76  72  87 CALM      30.03S
NEW YORK       CLOUDY    52  48  86 NE10      30.15R
NEWARK         LGT RAIN  53  48  83 NE10      30.14R
CHICAGO        MOSUNNY   53  43  68 CALM      30.21R
HARTFORD       CLOUDY    49  47  93 NE9G17    30.12R
BOSTON         LGT RAIN  47  46  97 NE12      30.17F
DALLAS         MOSUNNY   74  63  68 SE8       30.04S
PHILADELPHIA   DRIZZLE   53  50  89 NE14      30.12S FOG
LOS ANGELES    PTCLDY    59  57  93 CALM      29.99R
WASHINGTON DC  DRIZZLE   60  59  96 N10       30.06R FOG



USA.gov is the U.S. government's official web portal to all federal, state and local government web resources and services.